Volver al catálogo

TITAN 3C TRANSTAGE DEB

LostHEO
NORAD 28805·DEBRIS·🇺🇸 United States

Lanzado Dec 21, 1965 desde Cape Canaveral Space Force Station

Loading…

Próximos Pases (próximas 24 horas)

TLE

ObsoletoSource: Space-Track

Época: Jul 19, 2026, 08:18 UTC

1 28805U 65108BX  26200.34593431  .00000140  00000-0  10631-2 0  9993
2 28805  26.3448 269.5858 6792908 211.9598  53.3177  2.75948474  3471

Sigue TITAN 3C TRANSTAGE DEB en tiempo real con AllMySat

Download on the App Store